Tracking 18980 objects as of 18-Feb-2018
HD Live streaming from Space Station
objects crossing your sky now

GALAXY 27 (TELSTAR 7)

Track GALAXY 27 (TELSTAR 7) now!
GALAXY 27 (TELSTAR 7) is classified as:


NORAD ID: 25922
Int'l Code: 1999-052A
Perigee: 36,107.4 km
Apogee: 36,188.9 km
Inclination: 3.7 °
Period: 1,454.2 minutes
Semi major axis: 42519 km
RCS: 15.8489 m2 (large)
Launch date: September 25, 1999
Source: International Telecommunications Satellite Organization (ITSO)
Launch site: FRENCH GUIANA (FRGUI)

24 C-band, 24 Ku-band; voice and video to North and Central America.
aabbcc
Your satellite tracking list
Your tracking list is empty




NASA's NSSDC Master Catalog

Two Line Element Set (TLE):
1 25922U 99052A   18047.77442987 -.00000149 +00000-0 +00000-0 0  9998
2 25922 003.6703 071.4772 0009588 268.6369 091.5460 00.99020772021137
Source of the keplerian elements: AFSPC